Regional Weather Roundup
Issued by NWS Green Bay, WI

Home | Current Version | Previous Version | Graphics & Text | Print | Product List | Glossary Off
Versions: 1 2 3 4 5 6 7 8 9 10 11 12 13 14 15 16 17 18 19 20 21 22 23 24 25 26 27 28 29 30 31 32 33 34 35 36 37 38 39 40 41 42 43 44 45 46 47 48 49 50

000
ASUS43 KGRB 270011
RWRGRB

NORTH-CENTRAL AND NORTHEAST WISCONSIN REGIONAL WEATHER ROUNDUP
NATIONAL WEATHER SERVICE GREEN BAY WI
700 PM CDT THU MAY 26 2016

WIZ005-009-010>012-018-019-270100-
NORTH CENTRAL WISCONSIN

CITY           SKY/WX    TMP DP  RH WIND       PRES   REMARKS
IRONWOOD       SUNNY     68  61  77 E3        29.75S
MANITOWISH WTR NOT AVBL
ARBOR VITAE    PTSUNNY   72  62  70 CALM      29.81R
EAGLE RIVER      N/A     72  57  59 S5        29.81R
LAND O LAKES   CLOUDY    69  62  80 CALM      29.80F
RHINELANDER    PTSUNNY   73  57  57 SW6       29.82R
PHILLIPS       MOSUNNY   74  58  55 SW10      29.80R
ANTIGO         MOSUNNY   72  60  64 W9        29.84R
TOMAHAWK       SUNNY     73  55  53 SW3       29.83R
MERRILL        SUNNY     75  58  55 SW8       29.83R
$$

WIZ013-073-270100-
NORTHEAST WISCONSIN

CITY           SKY/WX    TMP DP  RH WIND       PRES   REMARKS
IRON MOUNTAIN  MOSUNNY   74  59  59 CALM      29.78S
MARINETTE      SUNNY     65  60  84 SE7       29.82R
OCONTO         MOSUNNY   67  67  99 E8        29.81R
$$

WIZ017-030-035>037-045-270100-
CENTRAL WISCONSIN

CITY           SKY/WX    TMP DP  RH WIND       PRES   REMARKS
MEDFORD        MOSUNNY   74  59  59 SW8       29.83R
WAUSAU         MOSUNNY   77  57  50 SW9       29.82R
MOSINEE        MOSUNNY   75  57  53 SW5       29.85R
MARSHFIELD     SUNNY     75  59  57 SW6       29.83R
WISC RAPIDS    SUNNY     78  54  43 W8        29.84R
STEVENS POINT  SUNNY     76  57  51 W6        29.85R
WAUPACA        MOSUNNY   80  57  45 SW6       29.82R
SHAWANO        SUNNY     79  56  45 W6        29.82R
CLINTONVILLE   SUNNY     79  52  38 NW5       29.81R
WAUTOMA        MOSUNNY   79  59  50 W7        29.84R
$$

WIZ038-039-048-051-270100-
FOX VALLEY

CITY           SKY/WX    TMP DP  RH WIND       PRES   REMARKS
NWS GREEN BAY  SUNNY     80  58  46 W7        29.81R
APPLETON       PTSUNNY   79  55  44 W6        29.81R
OSHKOSH        SUNNY     79  57  46 W5        29.82R
FOND DU LAC    SUNNY     80  56  43 W6        29.83R
$$

WIZ022-050-052-270100-
EAST CENTRAL WISCONSIN

CITY           SKY/WX    TMP DP  RH WIND       PRES   REMARKS
EPHRAIM        FAIR      67  60  76 NE5       29.80S
STURGEON BAY   NOT AVBL
MANITOWOC      SUNNY     74  57  55 E9        29.82R HAZE
SHEBOYGAN      SUNNY     80  59  48 W5        29.82R
$$

LMZ563-521-522-541>543-270100-
LAKESHORE

STATION/POSITION TIME  TEMP    WIND        PRES    VSBY  WAVE
                       AIR SEA DIR/SP/G                  HT/PER
                 (UTC) (F)     (DEG/KT/KT) (MB)    (MI)  (FT/S)
SHEBOYGAN LKSHOR 0000   60     170/ 16/ 17 1010.3R
KEWAUNEE LKSHORE 2300          290/  5/  9 1008.2F
ALGOMA MARINA    2317          330/ 10/ 16   N/A
NORTHPORT PIER   2300   60     320/  5/ 16 1009.1F
N MID LAKE BUOY  2250   48 45  250/  6/  8 1010.0          2/ 4
CHAMBERS ISLAND  2300   64      30/ 10/ 11 1009.1
MENOMINEE LKSHOR 2300           70/  9/ 11 1007.8F
$$




USA.gov is the U.S. government's official web portal to all federal, state and local government web resources and services.